This is the latest recevied weather packets stored in our database for station/object N0QV. If no packets are shown the sender has not sent any weather packets the latest 10 day(s).
| Time | Temp. | Humidity | Pressure | Rain* | Wind** | Luminosity | Snow |
|---|---|---|---|---|---|---|---|
| 1788005132 | 20° C | 87% | 1014 hPa | 0 mm | - | 6 W/m² | - |
| 1788004827 | 20° C | 87% | 1013.6 hPa | 0 mm | - | 5 W/m² | - |
| 1788004526 | 20° C | 88% | 1013.5 hPa | 0 mm | - | 3 W/m² | - |
| 1788004221 | 20° C | 88% | 1013.4 hPa | 0 mm | - | 2 W/m² | - |
| 1788003920 | 20° C | 89% | 1013.9 hPa | 0 mm | - | 0 W/m² | - |
| 1788003614 | 20° C | 89% | 1013.5 hPa | 0 mm | - | 0 W/m² | - |
| 1788003309 | 20° C | 89% | 1014 hPa | 0 mm | - | 0 W/m² | - |
| 1788003004 | 19.44° C | 90% | 1013.9 hPa | 0 mm | - | 0 W/m² | - |
| 1788002703 | 19.44° C | 91% | 1014.4 hPa | 0 mm | - | 0 W/m² | - |
| 1788002399 | 19.44° C | 92% | 1014.6 hPa | 1.27 mm | - | 0 W/m² | - |
| 1788002095 | 19.44° C | 92% | 1014.9 hPa | 1.27 mm | - | 0 W/m² | - |
| 1788001794 | 19.44° C | 92% | 1014.9 hPa | 0 mm | - | 0 W/m² | - |
| 1788001489 | 19.44° C | 91% | 1014.9 hPa | 1.78 mm | - | 0 W/m² | - |
| 1788001189 | 19.44° C | 91% | 1015 hPa | 1.78 mm | - | 0 W/m² | - |
| 1788000884 | 19.44° C | 91% | 1014.5 hPa | 0 mm | - | 0 W/m² | - |
| 1788000580 | 19.44° C | 91% | 1014.4 hPa | 1.27 mm | - | 0 W/m² | - |
| 1788000279 | 19.44° C | 91% | 1014.8 hPa | 4.32 mm | - | 0 W/m² | - |
| 1787999975 | 19.44° C | 91% | 1014.7 hPa | 4.83 mm | - | 0 W/m² | - |
| 1787999672 | 19.44° C | 91% | 1014.7 hPa | 3.05 mm | - | 0 W/m² | - |
| 1787999369 | 19.44° C | 91% | 1015 hPa | 3.05 mm | - | 0 W/m² | - |
| 1787999067 | 20° C | 91% | 1014.9 hPa | 1.78 mm | - | 0 W/m² | - |
| 1787998762 | 20° C | 91% | 1015.1 hPa | 1.78 mm | - | 0 W/m² | - |
| 1787998460 | 20° C | 91% | 1014.8 hPa | 1.27 mm | - | 0 W/m² | - |
| 1787998156 | 20° C | 91% | 1014.6 hPa | 3.05 mm | - | 0 W/m² | - |
| 1787997855 | 20° C | 91% | 1015 hPa | 3.05 mm | - | 0 W/m² | - |
* Rain latest hour (hover to see other rain measurements)
** Current wind speed in m/s (hover to see current wind gust speed)